Voltar ao catálogo

STARLINK-5864

AtivoComunicaçõesVLEO
NORAD 55940·PAYLOAD·🇺🇸 United States

Lançado Mar 17, 2023 de Vandenberg Space Force Base

Loading…

Próximas Passagens (próximas 24 horas)

TLE

AtualizadoSource: CelesTrak SupGP

Época: Sep 15, 2026, 02:59 UTC

1 55940C 23037AC  26258.12479167  .00420760  00000+0  33216-1 0  2580
2 55940  70.0003 166.8049 0003174 269.5431 182.6316 15.00415749    18

Acompanhe STARLINK-5864 em tempo real com AllMySat

Download on the App Store